Regional Weather Roundup
Issued by NWS

Home | Current Version | Previous Version | Graphics & Text | Print | Product List | Glossary On
Versions: 1 2 3 4 5 6 7 8 9 10 11 12 13 14 15 16 17 18 19 20 21 22 23 24 25 26 27 28 29 30 31 32 33 34 35 36 37 38 39 40 41 42 43 44 45 46 47 48 49 50
000
ASUS43 KDTX 211901
RWRMI
MICHIGAN HOURLY REGIONAL WEATHER ROUNDUP
NATIONAL WEATHER SERVICE DETROIT/PONTIAC MI
300 PM EDT THU AUG 21 2014

NOTE: "FAIR" INDICATES FEW OR NO CLOUDS BELOW 12,000 FEET WITH NO
SIGNIFICANT WEATHER AND/OR OBSTRUCTION TO VISIBILITY.

MIZ047>049-052>055-059>063-066>070-074>076-081>083-212000-
SOUTHEAST LOWER MICHIGAN

CITY           SKY/WX    TMP DP  RH WIND       PRES   REMARKS
ADRIAN         CLOUDY    81  68  64 SW8       29.98F
ALMA           CLOUDY    74  65  73 CALM      29.99S
ANN ARBOR      PTSUNNY   80  69  69 SW5       29.97F
BAD AXE        MOSUNNY   77  64  65 SW5       29.99S
CARO           PTSUNNY   77  67  70 SW5       29.99S
DETROIT CITY   PTSUNNY   80  68  66 SE7       29.98F
DETROIT        CLOUDY    79  69  71 S3        29.97F
FLINT          PTSUNNY   79  65  62 S5        29.98F
GROSSE ILE     PTSUNNY   75  72  88 S6        29.97F
HILLSDALE      CLOUDY    82  69  62 SW5       30.00R
HOWELL         CLOUDY    76  66  71 E5        29.98F

CITY           SKY/WX    TMP DP  RH WIND       PRES   REMARKS
JACKSON        CLOUDY    81  70  69 VRB3      29.98S
LAMBERTVILLE   CLOUDY    81  68  65 S5        29.97F
LANSING        CLOUDY    77  66  68 CALM      29.98S
LAPEER         CLOUDY    76  65  68 CALM      29.99F
MASON          CLOUDY    78  70  77 CALM      29.98S
MONROE         CLOUDY    79  72  78 SE5       29.96F
MT. CLEMENS    PTSUNNY   77  64  63 SE3       29.97F
PONTIAC        CLOUDY    76  64  66 SE7       29.98F
PORT HOPE        N/A     68  62  81 N5        30.00R
PORT HURON     MOSUNNY   77  68  73 SW6       29.99S
TRI CITIES     PTSUNNY   76  63  64 SE3       29.99F
TROY           PTSUNNY   80  66  62 SE6       30.00S
SAGINAW HB     PTSUNNY   75  63  64 CALM      29.99S
$$
MIZ043>046-050>051-056>058-064>065-071>073-077>080-212000-
SOUTHWEST LOWER MICHIGAN

CITY           SKY/WX    TMP DP  RH WIND       PRES   REMARKS
BATTLE CREEK   PTSUNNY   82  68  62 S9        29.98S
BENTON HARBOR  CLOUDY    75  69  81 W16       30.01R
BIG RAPIDS     CLOUDY    76  67  73 S7        29.98R
COLDWATER      CLOUDY    81  70  68 SW9       29.99R
FREMONT        CLOUDY    76  65  67 SE3       29.98R
HOLLAND        CLOUDY    76  70  82 W12       30.00R
GRAND RAPIDS   CLOUDY    79  72  79 E3        29.98R
IONIA          CLOUDY    76  67  73 E5        29.97S
KALAMAZOO      CLOUDY    81  69  67 S10       29.98R
LUDINGTON      CLOUDY    74  65  73 CALM      29.97S
MARSHALL       PTSUNNY   80  69  67 S5        29.97R
MOUNT PLEASANT PTSUNNY   75  63  67 E3        29.98S
MUSKEGON       LGT RAIN  75  68  78 SW12      29.99R
SOUTH HAVEN    CLOUDY    75  71  86 W9        30.00R
$$
MIZ016>042-212000-
NORTHERN LOWER MICHIGAN

CITY           SKY/WX    TMP DP  RH WIND       PRES   REMARKS
ALPENA         CLOUDY    71  62  73 NW3       29.98F
BEAVER ISLAND  CLOUDY    69  62  78 SW3       30.00R
BELLAIRE       CLOUDY    73  62  66 CALM      29.98S
CADILLAC       CLOUDY    74  63  68 CALM      29.98S
CHARLEVOIX     PTSUNNY   71  64  76 NW8       30.02S
FRANKFORT      CLOUDY    78  62  57 CALM      29.96S
GAYLORD        CLOUDY    72  59  63 CALM      29.99F
GRAYLING       CLOUDY    74  60  60 CALM      30.00F
HARBOR SPRINGS PTSUNNY   73  62  69 SW5       29.98S
HOUGHTON LAKE  PTSUNNY   75  58  55 W3        29.99F
MANISTEE       CLOUDY    75  63  64 SE5       29.98R
OSCODA         CLOUDY    68  63  84 SE7       29.99R
PELLSTON       CLOUDY    73  63  70 CALM      29.99S
ROGERS CITY    SUNNY     68  65  90 NE5       30.00S
TRAVERSE CITY  PTSUNNY   74  60  61 NE6       29.97S
$$
MIZ007>008-015-212000-
EASTERN UPPER MICHIGAN

CITY           SKY/WX    TMP DP  RH WIND       PRES   REMARKS
KINROSS        PTSUNNY   73  64  73 N6        29.98S
MACKINAC ISLAN MOSUNNY   71  64  80 CALM      29.99S
NEWBERRY       CLOUDY    71  61  70 CALM      29.98S
S. S. MARIE    CLOUDY    73  63  70 VRB3      29.97F
$$
MIZ004>006-011>014-085-212000-
CENTRAL UPPER MICHIGAN

CITY           SKY/WX    TMP DP  RH WIND       PRES   REMARKS
MANISTIQUE     CLOUDY    67  62  85 S6        29.99R
ESCANABA       CLOUDY    66  61  82 SE8       29.99R
MENOMINEE      CLOUDY    70  61  73 S10       29.96F
SAWYER-GWINN   CLOUDY    70  61  73 S5        29.98S
$$
MIZ001>003-009>011-084-212000-
WESTERN UPPER MICHIGAN

CITY           SKY/WX    TMP DP  RH WIND       PRES   REMARKS
IRON MOUNTAIN  CLOUDY    69  62  78 S6        29.96S
HOUGHTON       CLOUDY    67  60  78 E9        29.97R
COPPER HARBOR    N/A     61  57  87 SE8       29.96S
IRONWOOD       PTSUNNY   73  66  78 S10       29.88S
$$

ABBREVIATIONS USED IN REMARKS
   TC - TEMPERATURE IN CELSIUS
  WCI - WIND CHILL INDEX
   HX - HEAT INDEX
  VSB - VISIBILITY



USA.gov is the U.S. government's official web portal to all federal, state and local government web resources and services.